Location: Hoover
(45.1124°N, 103.2678°W)
Time: 04:18:42
(UTC+00:00)

N. Korean satellite - Pass Details

Date: 25 November 2020
Orbit: 453 x 502 km, 97.2° (Epoch: 16 January)

Event Time Altitude Azimuth Distance (km) Brightness Sun altitude
Rises 11:31:45 0° 28° (NNE) 2,542 10.5 -26.5°
Maximum altitude 11:36:51 18° 93° (E) 1,245 9.5 -25.6°
Drops below altitude 10° 11:39:25 10° 139° (SE) 1,676 9.9 -25.2°
Sets 11:41:59 0° 158° (SSE) 2,561 10.6 -24.7°
